Regional Weather Roundup
Issued by NWS

Home | Current Version | Previous Version | Graphics & Text | Print | Product List | Glossary On
Versions: 1 2 3 4 5 6 7 8 9 10 11 12 13 14 15 16 17 18 19 20 21 22 23 24 25 26 27 28 29 30 31 32 33 34 35 36 37 38 39 40 41 42 43 44 45 46 47 48 49 50
000
ASUS45 KTFX 161219
RWRMT
MONTANA HOURLY WEATHER ROUNDUP
NATIONAL WEATHER SERVICE GREAT FALLS MT
619 AM MDT TUE SEP 16 2014

NOTE: "FAIR" INDICATES FEW OR NO CLOUDS BELOW 12000 FEET WITH NO
SIGNIFICANT WEATHER AND/OR OBSTRUCTIONS TO VISIBILITY.

* THESE STATIONS ARE NOT UNDER NWS QUALITY CONTROL. THEY DO NOT
   REPORT WEATHER SUCH AS PRECIPITATION OR FOG.

MTZ001>007-043-161300-
WEST OF THE DIVIDE
CITY           SKY/WX    TMP DP  RH WIND       PRES   REMARKS
KALISPELL      CLEAR     39  37  93 NW3       30.01F
MISSOULA       PTCLDY    46  34  63 NE3       30.06S
BUTTE          PTCLDY    37  30  76 SE3       30.17S
MULLAN PASS    MOCLDY    63  25  24 S5        30.12S
* ESSEX        N/A       39  34  82 E2         N/A
* LINCOLN      N/A       33  27  79 N/A        N/A
* LOOKOUT PASS N/A       49  31  50 S2         N/A
* POLSON       N/A       49  34  56 NE1        N/A
* RONAN APT    PTCLDY    39  34  82 N/A        N/A
* SEELEY LAKE  N/A       33  28  82 N1         N/A
* THOMP F APT  CLEAR     57  30  36 N3         N/A
$$

MTZ008-052>055-161300-
SOUTHWEST MONTANA
CITY           SKY/WX    TMP DP  RH WIND       PRES   REMARKS
BOZEMAN        CLOUDY    39  34  82 SE6       30.12R WCI  35
DILLON         MOCLDY    52  30  43 SW12      30.14S
W YELLOWSTONE  CLOUDY    32  27  82 CALM      30.27R
* THREE FORKS  MOCLDY    37  18  46 N/A        N/A
* BOULDER HILL N/A       50  26  39 S11        N/A
* MONIDA PASS  N/A       48  27  44 NW2        N/A
* RAYNOLDS PAS N/A       47  34  61 S6         N/A
* WHITEHALL    N/A       41  34  76 N2         N/A
* WISE RIVER   N/A       36  26  67 W4         N/A
$$

MTZ009>010-012-014-046-048-049-054-161300-
EAST SLOPES AND CENTRAL MONTANA
CITY           SKY/WX    TMP DP  RH WIND       PRES   REMARKS
CUT BANK       MOCLDY    39  34  82 CALM      30.01F
GREAT FALLS    MOCLDY    41  36  82 NW3       30.00S
HELENA         MOCLDY    48  36  63 CALM      30.07S
MALMSTROM AFB  MOCLDY    45  37  74 N/A       30.02S
* CONRAD       MOCLDY    37  36  96 N/A        N/A
* EAST GLACIER N/A       48  31  52 NW8        N/A
* MONARCH      N/A       47  27  46 S5         N/A
* PENDROY      N/A       49  35  59 N1         N/A
* ROGERS PASS  N/A       53  25  34 NW4        N/A
* SAINT MARY   N/A       33  31  92 S3         N/A
* SWEET GRASS  N/A       55  38  53 W6         N/A
$$

MTZ011-013-016-021-035-040-045-047-050-051-161300-
NORTH CENTRAL MONTANA
CITY           SKY/WX    TMP DP  RH WIND       PRES   REMARKS
HAVRE          CLEAR     39  37  93 SW6       29.99S WCI  35
LEWISTOWN      PTCLDY    45  34  65 SE8       30.04S
* CHINOOK      CLEAR     41  37  86 CALM      29.99R
* FORT BENTON  MOCLDY    43  39  86 CALM      30.00S
* CHESTER      N/A       40  36  86 N2         N/A
* DENTON       N/A       40  38  93 SW1        N/A
* JUDITH GAP   N/A       49  40  71 NE2        N/A
* LOMA         N/A       42  40  93 SW4        N/A
$$

MTZ017>020-022>027-061-062-161300-
NORTHEAST MONTANA
CITY           SKY/WX    TMP DP  RH WIND       PRES   REMARKS
GLASGOW        CLEAR     45  34  65 E12       29.99F
GLENDIVE       CLEAR     37  34  89 W3        30.02S
JORDAN         CLEAR     37  36  96 CALM      29.99F
SIDNEY         CLEAR     34  30  85 CALM      30.04R
WOLF POINT     CLEAR     37  32  82 CALM      30.02S
* BEAVER HILL  N/A       45  40  83 E4         N/A
* CIRCLE       N/A       42  36  79 N/A        N/A
* LINDSAY DVD  N/A       45  33  63 N/A        N/A
* NAVAJO       N/A       49  32  52 W8         N/A
* SACO         N/A       39  37  93 NE2        N/A
$$

MTZ028>042-056>058-161300-
SOUTHCENTRAL AND SOUTHEAST MONTANA
CITY           SKY/WX    TMP DP  RH WIND       PRES   REMARKS
BAKER          CLEAR     37  37 100 SE3       30.03F
BILLINGS       MOCLDY    48  43  83 SW14      30.04S
LIVINGSTON     PTCLDY    43  34  71 NW13      30.10S
MILES CITY     CLEAR     43  37  79 NE6       30.01S
* LAUREL APT   PTCLDY    45  39  80 S7         N/A
* ROUNDUP APT  PTCLDY    46  39  77 S6         N/A
* ALZADA       N/A       41  40  96 E1         N/A
* HYSHAM       N/A       49  40  71 W6         N/A
* LAME DEER    N/A       63  36  37 W6         N/A
* REED POINT   N/A       42  39  89 W4         N/A
* ROSCOE HILL  N/A       59  18  20 S5         N/A
$$

REGIONAL REPORTS...DAKOTAS
CITY           SKY/WX    TMP DP  RH WIND       PRES   REMARKS
WILLISTON      CLEAR     36  30  79 CALM      30.02F
DICKINSON      CLEAR     39  37  93 S5        30.01F WCI  35
BEACH          N/A       39  39 100 S3        30.02F
CROSBY         CLEAR     37  37 100 S5        30.01F WCI  33
TIOGA          CLEAR     32  32 100 CALM      30.05S
WATFORD CITY   CLEAR     32  28  85 SW3       30.01R
BISMARCK       CLEAR     43  37  79 NE5       30.06S
GRAND FORKS    FAIR      45  37  74 SW7       30.04R
FARGO          CLEAR     45  37  74 S8        30.09F
BUFFALO SD     CLEAR     43  39  86 SW3       29.97F
RAPID CITY     CLEAR     43  39  86 CALM      30.04R
$$

REGIONAL REPORTS...WYOMING/IDAHO/WASHINGTON
CITY           SKY/WX    TMP DP  RH WIND       PRES   REMARKS
GILLETTE       PTCLDY    45  39  80 N/A       30.08F
SHERIDAN       CLEAR     41  36  82 S5        30.05F
CODY           PTCLDY    54  36  51 S12       30.12F
YELLOWSTONE LA PTCLDY    30  28  92 NW3       30.35S
SALMON         PTCLDY    45  36  71 CALM      30.11R
MULLAN PASS    MOCLDY    63  25  24 S5        30.12S
SAND POINT     PTCLDY    41  41 100 CALM      29.97S
SPOKANE        MOCLDY    59  37  44 NE8       29.92S
$$

REGIONAL REPORTS...ALBERTA
CITY           SKY/WX    TMP DP  RH WIND       PRES   REMARKS
CALGARY        N/A       45  39  80 VRB2      29.97S
LETHBRIDGE     N/A       41  37  86 CALM      29.96S
MEDICINE HAT   CLEAR     43  41  93 SE5       29.96R
EDMONTON       N/A       41  39  93 SE2       29.91S
WATERTON GATE  N/A       48  36  63 S6         N/A
CARDSTON       N/A       37  36  96 SE7        N/A   WCI  32
$$

REGIONAL REPORTS...SASKATCHEWAN
CITY           SKY/WX    TMP DP  RH WIND       PRES   REMARKS
SWIFT CURRENT  CLEAR     46  39  77 SW12      29.96F
MOOSE JAW      N/A       45  39  80 CALM      29.98S
REGINA         N/A       39  37  93 SE5       29.99S WCI  35
VAL MARIE      N/A       34  34 100 NE6        N/A   WCI  29
ASSINIBOIA     N/A       37  36  96 SW3        N/A
CORONACH       N/A       32  30  92 CALM       N/A

$$



USA.gov is the U.S. government's official web portal to all federal, state and local government web resources and services.